| time (UTC) | temp F | wind direction | speed MPH | gust MPH | rain 1hr in | rain 24hr in | rain mn in | humidity % | barometer mb |
| 20260507133004 | 56 | 32 | 2.0 | 7.0 | 0.00 | 0.06 | 0.06 | 81 | 1012.1 |
| 20260507132505 | 56 | 36 | 2.0 | 6.0 | 0.00 | 0.06 | 0.06 | 81 | 1012.2 |
| 20260507132004 | 56 | 32 | 1.0 | 9.0 | 0.00 | 0.06 | 0.06 | 82 | 1012.1 |
| 20260507131004 | 56 | 28 | 3.0 | 9.0 | 0.00 | 0.06 | 0.06 | 82 | 1011.9 |
| 20260507130504 | 56 | 40 | 4.0 | 7.0 | 0.00 | 0.06 | 0.06 | 81 | 1011.8 |
| 20260507130004 | 56 | 26 | 3.0 | 6.0 | 0.00 | 0.06 | 0.06 | 82 | 1011.9 |
| 20260507124504 | 55 | 22 | 3.0 | 7.0 | 0.00 | 0.06 | 0.06 | 82 | 1012.0 |
| 20260507124004 | 55 | 33 | 1.0 | 6.0 | 0.00 | 0.06 | 0.06 | 84 | 1012.1 |
| 20260507123503 | 55 | 44 | 3.0 | 6.0 | 0.00 | 0.06 | 0.06 | 82 | 1012.0 |
| 20260507123003 | 55 | 42 | 0.0 | 6.0 | 0.00 | 0.06 | 0.06 | 83 | 1012.0 |
| 20260507122504 | 55 | 12 | 0.0 | 5.0 | 0.00 | 0.06 | 0.06 | 84 | 1011.9 |
| 20260507122005 | 55 | 30 | 2.0 | 5.0 | 0.00 | 0.06 | 0.06 | 83 | 1012.0 |
| 20260507121004 | 55 | 52 | 1.0 | 5.0 | 0.00 | 0.06 | 0.06 | 82 | 1012.0 |
| 20260507120504 | 55 | 33 | 1.0 | 8.0 | 0.00 | 0.06 | 0.06 | 83 | 1012.1 |
| 20260507120005 | 54 | 40 | 2.0 | 10.0 | 0.00 | 0.06 | 0.06 | 82 | 1012.1 |
| 20260507115506 | 54 | 29 | 5.0 | 10.0 | 0.00 | 0.06 | 0.06 | 82 | 1012.1 |
| 20260507115004 | 54 | 30 | 3.0 | 6.0 | 0.00 | 0.06 | 0.06 | 83 | 1012.3 |
| 20260507114504 | 55 | 353 | 1.0 | 6.0 | 0.00 | 0.06 | 0.06 | 85 | 1012.3 |
| 20260507113504 | 54 | 0 | 1.0 | 8.0 | 0.00 | 0.06 | 0.06 | 86 | 1012.1 |
| 20260507112504 | 54 | 28 | 1.0 | 6.0 | 0.00 | 0.06 | 0.06 | 87 | 1011.7 |
| 20260507112004 | 54 | 23 | 2.0 | 6.0 | 0.00 | 0.06 | 0.06 | 88 | 1011.8 |
| 20260507111504 | 54 | 15 | 1.0 | 5.0 | 0.00 | 0.06 | 0.06 | 88 | 1011.6 |
| 20260507111004 | 54 | 20 | 2.0 | 5.0 | 0.00 | 0.06 | 0.06 | 88 | 1011.5 |
| 20260507110004 | 54 | 12 | 2.0 | 7.0 | 0.00 | 0.06 | 0.06 | 89 | 1011.4 |
| 20260507105505 | 54 | 31 | 2.0 | 7.0 | 0.00 | 0.06 | 0.06 | 89 | 1011.6 |
| 20260507105004 | 54 | 19 | 2.0 | 8.0 | 0.00 | 0.06 | 0.06 | 89 | 1011.5 |
| 20260507104504 | 54 | 14 | 3.0 | 8.0 | 0.00 | 0.06 | 0.06 | 90 | 1011.4 |
| 20260507104005 | 54 | 4 | 2.0 | 8.0 | 0.00 | 0.06 | 0.06 | 90 | 1011.6 |
| 20260507103505 | 54 | 27 | 2.0 | 6.0 | 0.00 | 0.06 | 0.06 | 90 | 1011.5 |
| 20260507103004 | 54 | 21 | 2.0 | 6.0 | 0.00 | 0.06 | 0.06 | 91 | 1011.4 |
| 20260507102504 | 54 | 17 | 2.0 | 6.0 | 0.00 | 0.06 | 0.06 | 91 | 1011.4 |
| 20260507102004 | 54 | 22 | 1.0 | 5.0 | 0.00 | 0.06 | 0.06 | 91 | 1011.3 |
| 20260507101506 | 54 | 26 | 1.0 | 5.0 | 0.00 | 0.06 | 0.06 | 92 | 1011.4 |
| 20260507100505 | 54 | 36 | 3.0 | 6.0 | 0.00 | 0.06 | 0.06 | 91 | 1011.2 |
| 20260507100004 | 54 | 23 | 2.0 | 7.0 | 0.00 | 0.06 | 0.06 | 92 | 1011.2 |
| 20260507095505 | 54 | 29 | 2.0 | 9.0 | 0.00 | 0.06 | 0.06 | 92 | 1011.4 |
| 20260507094504 | 54 | 17 | 2.0 | 8.0 | 0.00 | 0.06 | 0.06 | 91 | 1011.3 |
| 20260507094004 | 55 | 19 | 3.0 | 8.0 | 0.00 | 0.06 | 0.06 | 91 | 1011.3 |
| 20260507093504 | 55 | 27 | 3.0 | 7.0 | 0.00 | 0.06 | 0.06 | 91 | 1011.2 |
| 20260507093004 | 55 | 4 | 3.0 | 9.0 | 0.00 | 0.06 | 0.06 | 91 | 1010.9 |
| 20260507092004 | 55 | 16 | 3.0 | 12.0 | 0.00 | 0.06 | 0.06 | 91 | 1010.3 |
| 20260507091504 | 55 | 26 | 5.0 | 12.0 | 0.00 | 0.06 | 0.06 | 91 | 1010.3 |
| 20260507091004 | 55 | 22 | 6.0 | 15.0 | 0.00 | 0.06 | 0.06 | 92 | 1010.6 |
| 20260507090504 | 56 | 26 | 6.0 | 15.0 | 0.00 | 0.06 | 0.06 | 92 | 1010.3 |
| 20260507085505 | 57 | 28 | 6.0 | 14.0 | 0.00 | 0.06 | 0.06 | 94 | 1010.2 |
| 20260507085005 | 57 | 2 | 5.0 | 12.0 | 0.00 | 0.06 | 0.06 | 94 | 1010.0 |
| 20260507084503 | 57 | 1 | 3.0 | 10.0 | 0.00 | 0.06 | 0.06 | 94 | 1010.2 |
| 20260507084004 | 57 | 4 | 2.0 | 13.0 | 0.00 | 0.06 | 0.06 | 94 | 1010.3 |
| 20260507083504 | 57 | 355 | 3.0 | 13.0 | 0.00 | 0.06 | 0.06 | 94 | 1010.4 |
| 20260507083005 | 57 | 2 | 5.0 | 10.0 | 0.00 | 0.06 | 0.06 | 94 | 1010.1 |
| 20260507082505 | 58 | 355 | 4.0 | 10.0 | 0.00 | 0.06 | 0.06 | 95 | 1010.1 |
| 20260507082004 | 58 | 15 | 3.0 | 13.0 | 0.00 | 0.06 | 0.06 | 95 | 1010.2 |
| 20260507081503 | 58 | 2 | 3.0 | 17.0 | 0.00 | 0.06 | 0.06 | 95 | 1010.1 |
| 20260507081004 | 58 | 353 | 6.0 | 17.0 | 0.00 | 0.06 | 0.06 | 94 | 1010.0 |
| 20260507080504 | 58 | 348 | 5.0 | 17.0 | 0.00 | 0.06 | 0.06 | 95 | 1009.9 |
| 20260507080005 | 59 | 7 | 3.0 | 12.0 | 0.02 | 0.06 | 0.06 | 95 | 1009.6 |
| 20260507075005 | 59 | 29 | 2.0 | 6.0 | 0.03 | 0.06 | 0.06 | 96 | 1008.7 |
| 20260507074505 | 59 | 349 | 2.0 | 6.0 | 0.03 | 0.06 | 0.06 | 96 | 1008.8 |
| 20260507074004 | 59 | 342 | 2.0 | 6.0 | 0.04 | 0.06 | 0.06 | 96 | 1008.6 |
| 20260507073504 | 59 | 357 | 3.0 | 6.0 | 0.04 | 0.06 | 0.06 | 95 | 1008.4 |
| 20260507073004 | 59 | 3 | 2.0 | 6.0 | 0.04 | 0.06 | 0.06 | 95 | 1008.7 |
| 20260507072505 | 60 | 1 | 2.0 | 9.0 | 0.05 | 0.06 | 0.06 | 95 | 1008.8 |
| 20260507072004 | 60 | 36 | 2.0 | 9.0 | 0.05 | 0.06 | 0.06 | 95 | 1008.5 |
| 20260507071004 | 62 | 13 | 5.0 | 12.0 | 0.05 | 0.06 | 0.06 | 94 | 1008.3 |
| 20260507070505 | 63 | 48 | 5.0 | 10.0 | 0.05 | 0.06 | 0.06 | 95 | 1008.0 |
| 20260507070009 | 64 | 24 | 0.0 | 3.0 | 0.03 | 0.04 | 0.04 | 95 | 1008.3 |
| 20260507065503 | 64 | 28 | 1.0 | 3.0 | 0.02 | 0.03 | 0.03 | 95 | 1008.6 |
| 20260507065004 | 64 | 105 | 0.0 | 1.0 | 0.02 | 0.03 | 0.03 | 95 | 1008.8 |
| 20260507064504 | 64 | 222 | 0.0 | 1.0 | 0.02 | 0.03 | 0.03 | 94 | 1008.9 |
| 20260507064004 | 64 | 222 | 0.0 | 1.0 | 0.01 | 0.02 | 0.02 | 94 | 1008.8 |
| 20260507063505 | 64 | 258 | 0.0 | 1.0 | 0.01 | 0.02 | 0.02 | 93 | 1008.6 |
| 20260507062504 | 65 | 142 | 0.0 | 1.0 | 0.00 | 0.01 | 0.01 | 92 | 1008.6 |
| 20260507062005 | 65 | 154 | 0.0 | 2.0 | 0.00 | 0.01 | 0.01 | 92 | 1008.6 |
| 20260507061504 | 65 | 359 | 0.0 | 2.0 | 0.00 | 0.01 | 0.01 | 91 | 1008.5 |
| 20260507061004 | 65 | 139 | 1.0 | 1.0 | 0.00 | 0.01 | 0.01 | 91 | 1008.5 |
| 20260507060004 | 65 | 151 | 0.0 | 1.0 | 0.00 | 0.01 | 0.01 | 90 | 1008.5 |
| 20260507055503 | 65 | 150 | 0.0 | 0.0 | 0.00 | 0.01 | 0.01 | 90 | 1008.5 |
| 20260507055004 | 65 | 150 | 0.0 | 1.0 | 0.00 | 0.01 | 0.01 | 90 | 1008.4 |
| 20260507054504 | 65 | 151 | 0.0 | 1.0 | 0.00 | 0.01 | 0.01 | 90 | 1008.4 |
| 20260507054003 | 65 | 134 | 0.0 | 2.0 | 0.00 | 0.01 | 0.01 | 90 | 1008.4 |
| 20260507053503 | 65 | 141 | 0.0 | 2.0 | 0.00 | 0.01 | 0.01 | 90 | 1008.5 |
| 20260507053005 | 65 | 205 | 0.0 | 3.0 | 0.00 | 0.01 | 0.01 | 90 | 1008.8 |
| 20260507052503 | 65 | 169 | 0.0 | 3.0 | 0.00 | 0.01 | 0.01 | 90 | 1008.8 |
| 20260507052004 | 65 | 132 | 0.0 | 3.0 | 0.00 | 0.01 | 0.01 | 90 | 1008.9 |
| 20260507051503 | 65 | 240 | 0.0 | 0.0 | 0.00 | 0.01 | 0.01 | 90 | 1008.9 |
| 20260507051004 | 65 | 240 | 0.0 | 1.0 | 0.00 | 0.01 | 0.01 | 90 | 1009.0 |
| 20260507050503 | 65 | 240 | 0.0 | 1.0 | 0.00 | 0.01 | 0.01 | 91 | 1008.9 |
| 20260507050005 | 65 | 150 | 0.0 | 0.0 | 0.00 | 0.01 | 0.01 | 91 | 1008.9 |
| 20260507045504 | 65 | 149 | 0.0 | 2.0 | 0.00 | 0.01 | 0.01 | 91 | 1008.8 |
| 20260507045004 | 65 | 150 | 0.0 | 2.0 | 0.00 | 0.01 | 0.01 | 91 | 1009.0 |
| 20260507044504 | 65 | 209 | 0.0 | 2.0 | 0.00 | 0.01 | 0.01 | 91 | 1009.1 |
| 20260507044004 | 65 | 233 | 0.0 | 2.0 | 0.00 | 0.01 | 0.01 | 91 | 1009.2 |
| 20260507043504 | 64 | 233 | 0.0 | 2.0 | 0.00 | 0.01 | 0.01 | 92 | 1009.2 |
| 20260507043004 | 64 | 150 | 0.0 | 0.0 | 0.00 | 0.01 | 0.01 | 92 | 1009.2 |
| 20260507042504 | 64 | 150 | 0.0 | 1.0 | 0.00 | 0.01 | 0.01 | 92 | 1009.2 |
| 20260507042003 | 64 | 151 | 0.0 | 1.0 | 0.00 | 0.01 | 0.01 | 92 | 1009.2 |
| 20260507041504 | 64 | 152 | 0.0 | 0.0 | 0.00 | 0.01 | 0.01 | 92 | 1009.4 |
| 20260507041004 | 64 | 152 | 0.0 | 0.0 | 0.00 | 0.01 | 0.01 | 92 | 1009.2 |
| 20260507040003 | 64 | 152 | 0.0 | 0.0 | 0.00 | 0.01 | 0.01 | 91 | 1009.1 |
| 20260507035504 | 64 | 153 | 0.0 | 0.0 | 0.00 | 0.01 | 0.01 | 90 | 1009.1 |
| 20260507034505 | 64 | 153 | 0.0 | 0.0 | 0.00 | 0.01 | 0.01 | 90 | 1008.9 |
| 20260507034004 | 65 | 153 | 0.0 | 0.0 | 0.00 | 0.01 | 0.01 | 90 | 1008.7 |
| 20260507033504 | 65 | 153 | 0.0 | 2.0 | 0.00 | 0.01 | 0.01 | 90 | 1008.7 |
| 20260507033005 | 65 | 153 | 0.0 | 2.0 | 0.00 | 0.01 | 0.01 | 90 | 1008.9 |
| 20260507032504 | 65 | 144 | 0.0 | 2.0 | 0.00 | 0.01 | 0.01 | 90 | 1009.0 |
| 20260507032004 | 65 | 139 | 0.0 | 0.0 | 0.00 | 0.01 | 0.01 | 90 | 1009.1 |
| 20260507031004 | 65 | 196 | 0.0 | 0.0 | 0.00 | 0.01 | 0.01 | 90 | 1009.0 |
| 20260507030504 | 65 | 136 | 0.0 | 0.0 | 0.00 | 0.01 | 0.01 | 89 | 1009.1 |
| 20260507025003 | 65 | 146 | 0.0 | 0.0 | 0.00 | 0.01 | 0.01 | 89 | 1009.2 |
| 20260507024504 | 65 | 145 | 0.0 | 0.0 | 0.00 | 0.01 | 0.01 | 89 | 1009.2 |
| 20260507024006 | 65 | 144 | 0.0 | 0.0 | 0.00 | 0.01 | 0.01 | 89 | 1009.3 |
| 20260507023504 | 65 | 145 | 0.0 | 0.0 | 0.00 | 0.01 | 0.01 | 89 | 1009.3 |
| 20260507023004 | 65 | 145 | 0.0 | 0.0 | 0.00 | 0.01 | 0.01 | 88 | 1009.4 |
| 20260507022505 | 65 | 145 | 0.0 | 0.0 | 0.00 | 0.01 | 0.01 | 88 | 1009.4 |
| 20260507021504 | 66 | 143 | 0.0 | 0.0 | 0.00 | 0.01 | 0.01 | 88 | 1009.5 |
| 20260507021004 | 66 | 138 | 0.0 | 0.0 | 0.00 | 0.01 | 0.01 | 88 | 1009.5 |
| 20260507020504 | 66 | 176 | 0.0 | 1.0 | 0.00 | 0.01 | 0.01 | 87 | 1009.5 |
| 20260507020005 | 66 | 119 | 0.0 | 1.0 | 0.00 | 0.01 | 0.01 | 88 | 1009.5 |
| 20260507015005 | 66 | 159 | 0.0 | 1.0 | 0.00 | 0.01 | 0.01 | 88 | 1009.9 |
| 20260507014004 | 66 | 122 | 0.0 | 0.0 | 0.00 | 0.01 | 0.01 | 88 | 1009.6 |
| 20260507013504 | 66 | 122 | 0.0 | 1.0 | 0.00 | 0.01 | 0.01 | 88 | 1009.6 |
| 20260507013004 | 66 | 122 | 0.0 | 1.0 | 0.00 | 0.01 | 0.01 | 88 | 1009.6 |
| 20260507012504 | 66 | 119 | 0.0 | 1.0 | 0.00 | 0.01 | 0.01 | 88 | 1009.6 |
| 20260507012004 | 66 | 119 | 0.0 | 1.0 | 0.00 | 0.01 | 0.01 | 88 | 1009.6 |
| 20260507011505 | 66 | 119 | 0.0 | 1.0 | 0.00 | 0.01 | 0.01 | 88 | 1009.5 |
| 20260507011004 | 66 | 119 | 0.0 | 0.0 | 0.00 | 0.01 | 0.01 | 87 | 1009.6 |
| 20260507010504 | 66 | 113 | 0.0 | 0.0 | 0.00 | 0.01 | 0.01 | 87 | 1009.6 |
| 20260507005505 | 66 | 113 | 0.0 | 0.0 | 0.00 | 0.01 | 0.01 | 86 | 1009.6 |
| 20260507005004 | 66 | 113 | 0.0 | 0.0 | 0.00 | 0.01 | 0.01 | 86 | 1009.6 |
| 20260507004504 | 67 | 113 | 0.0 | 0.0 | 0.00 | 0.01 | 0.01 | 85 | 1009.4 |
| 20260507004004 | 67 | 113 | 0.0 | 0.0 | 0.00 | 0.01 | 0.01 | 84 | 1009.3 |
| 20260507002003 | 68 | 113 | 0.0 | 0.0 | 0.00 | 0.01 | 0.01 | 83 | 1009.1 |
| 20260507001504 | 68 | 114 | 0.0 | 0.0 | 0.00 | 0.01 | 0.01 | 82 | 1009.2 |
| 20260507001004 | 69 | 114 | 0.0 | 1.0 | 0.00 | 0.01 | 0.01 | 82 | 1009.1 |
| 20260507000505 | 69 | 113 | 0.0 | 3.0 | 0.00 | 0.01 | 0.01 | 81 | 1009.1 |
| 20260507000005 | 69 | 141 | 0.0 | 3.0 | 0.00 | 0.01 | 0.01 | 81 | 1009.1 |
| 20260506235504 | 69 | 146 | 0.0 | 1.0 | 0.00 | 0.01 | 0.01 | 81 | 1009.0 |
| 20260506235004 | 69 | 94 | 0.0 | 3.0 | 0.00 | 0.01 | 0.01 | 80 | 1009.0 |
| 20260506234504 | 70 | 139 | 0.0 | 3.0 | 0.00 | 0.01 | 0.01 | 80 | 1008.9 |
| 20260506234005 | 70 | 129 | 0.0 | 3.0 | 0.00 | 0.01 | 0.01 | 80 | 1008.9 |
| 20260506232505 | 71 | 346 | 1.0 | 3.0 | 0.00 | 0.01 | 0.01 | 78 | 1008.8 |
| 20260506232004 | 71 | 192 | 1.0 | 3.0 | 0.00 | 0.01 | 0.01 | 78 | 1008.8 |
| 20260506231505 | 71 | 116 | 1.0 | 6.0 | 0.00 | 0.01 | 0.01 | 78 | 1008.9 |
| 20260506231004 | 71 | 233 | 1.0 | 6.0 | 0.00 | 0.01 | 0.01 | 77 | 1008.9 |
| 20260506230504 | 71 | 223 | 1.0 | 10.0 | 0.00 | 0.01 | 0.01 | 77 | 1008.9 |
| 20260506230005 | 71 | 124 | 2.0 | 10.0 | 0.00 | 0.01 | 0.01 | 77 | 1008.9 |
| 20260506225504 | 71 | 170 | 1.0 | 10.0 | 0.00 | 0.01 | 0.01 | 77 | 1009.0 |
| 20260506225004 | 71 | 126 | 2.0 | 5.0 | 0.00 | 0.01 | 0.01 | 76 | 1008.9 |
| 20260506224504 | 71 | 175 | 1.0 | 5.0 | 0.00 | 0.01 | 0.01 | 76 | 1008.9 |
| 20260506224003 | 71 | 195 | 1.0 | 7.0 | 0.00 | 0.01 | 0.01 | 76 | 1008.9 |
| 20260506223503 | 72 | 203 | 2.0 | 7.0 | 0.00 | 0.01 | 0.01 | 76 | 1008.8 |
| 20260506223004 | 72 | 229 | 2.0 | 7.0 | 0.00 | 0.01 | 0.01 | 76 | 1008.9 |
| 20260506222504 | 72 | 114 | 1.0 | 7.0 | 0.00 | 0.01 | 0.01 | 76 | 1008.8 |
| 20260506221504 | 72 | 211 | 3.0 | 9.0 | 0.00 | 0.01 | 0.01 | 76 | 1008.9 |
| 20260506221004 | 72 | 192 | 2.0 | 9.0 | 0.00 | 0.01 | 0.01 | 76 | 1008.9 |
| 20260506220505 | 72 | 181 | 2.0 | 9.0 | 0.00 | 0.01 | 0.01 | 76 | 1008.7 |
| 20260506215006 | 72 | 219 | 3.0 | 14.0 | 0.00 | 0.01 | 0.01 | 75 | 1008.8 |
| 20260506214506 | 72 | 165 | 2.0 | 12.0 | 0.00 | 0.01 | 0.01 | 75 | 1008.6 |
| 20260506214005 | 72 | 158 | 2.0 | 16.0 | 0.00 | 0.01 | 0.01 | 76 | 1008.5 |
| 20260506213504 | 72 | 169 | 4.0 | 17.0 | 0.00 | 0.01 | 0.01 | 76 | 1008.6 |
| 20260506213005 | 72 | 200 | 7.0 | 17.0 | 0.00 | 0.01 | 0.01 | 76 | 1008.7 |
| 20260506212004 | 71 | 326 | 1.0 | 14.0 | 0.00 | 0.01 | 0.01 | 77 | 1008.5 |
| 20260506211504 | 71 | 159 | 3.0 | 14.0 | 0.00 | 0.01 | 0.01 | 77 | 1008.5 |
| 20260506211004 | 71 | 185 | 2.0 | 14.0 | 0.00 | 0.01 | 0.01 | 77 | 1008.5 |
| 20260506210504 | 71 | 129 | 1.0 | 14.0 | 0.00 | 0.01 | 0.01 | 77 | 1008.4 |
| 20260506210004 | 71 | 185 | 4.0 | 14.0 | 0.00 | 0.01 | 0.01 | 77 | 1008.3 |
| 20260506205504 | 71 | 185 | 4.0 | 12.0 | 0.00 | 0.01 | 0.01 | 77 | 1008.4 |
| 20260506205005 | 71 | 237 | 2.0 | 20.0 | 0.00 | 0.01 | 0.01 | 77 | 1008.5 |
| 20260506204504 | 71 | 100 | 2.0 | 20.0 | 0.00 | 0.01 | 0.01 | 77 | 1008.5 |
| 20260506204004 | 71 | 198 | 4.0 | 12.0 | 0.00 | 0.01 | 0.01 | 76 | 1008.3 |
| 20260506203004 | 72 | 219 | 4.0 | 14.0 | 0.00 | 0.01 | 0.01 | 76 | 1008.2 |
| 20260506202505 | 72 | 262 | 2.0 | 14.0 | 0.00 | 0.01 | 0.01 | 75 | 1008.2 |
| 20260506202004 | 72 | 188 | 4.0 | 12.0 | 0.00 | 0.01 | 0.01 | 75 | 1008.4 |
| 20260506201504 | 72 | 194 | 5.0 | 12.0 | 0.00 | 0.01 | 0.01 | 75 | 1008.4 |
| 20260506200504 | 72 | 188 | 3.0 | 14.0 | 0.01 | 0.01 | 0.01 | 75 | 1008.7 |
| 20260506195504 | 72 | 128 | 3.0 | 10.0 | 0.01 | 0.01 | 0.01 | 75 | 1009.0 |
| 20260506195005 | 72 | 156 | 3.0 | 20.0 | 0.01 | 0.01 | 0.01 | 75 | 1009.1 |
| 20260506194505 | 73 | 170 | 4.0 | 20.0 | 0.01 | 0.01 | 0.01 | 75 | 1008.8 |
| 20260506194004 | 73 | 210 | 5.0 | 10.0 | 0.01 | 0.01 | 0.01 | 75 | 1008.6 |
| 20260506193504 | 72 | 169 | 3.0 | 12.0 | 0.01 | 0.01 | 0.01 | 75 | 1008.4 |
| 20260506193004 | 72 | 271 | 2.0 | 14.0 | 0.01 | 0.01 | 0.01 | 75 | 1008.5 |
| 20260506192505 | 72 | 167 | 5.0 | 14.0 | 0.01 | 0.01 | 0.01 | 75 | 1008.7 |
| 20260506192004 | 72 | 204 | 3.0 | 18.0 | 0.01 | 0.01 | 0.01 | 76 | 1008.7 |
| 20260506191504 | 72 | 192 | 2.0 | 18.0 | 0.01 | 0.01 | 0.01 | 76 | 1009.0 |
| 20260506190504 | 72 | 240 | 3.0 | 12.0 | 0.00 | 0.00 | 0.00 | 76 | 1009.4 |
| 20260506190005 | 72 | 172 | 3.0 | 12.0 | 0.00 | 0.00 | 0.00 | 76 | 1009.4 |
| 20260506185504 | 72 | 216 | 4.0 | 12.0 | 0.00 | 0.00 | 0.00 | 77 | 1009.5 |
| 20260506185003 | 71 | 185 | 3.0 | 14.0 | 0.00 | 0.00 | 0.00 | 77 | 1009.3 |
| 20260506184005 | 71 | 170 | 5.0 | 10.0 | 0.00 | 0.00 | 0.00 | 78 | 1009.4 |
| 20260506183504 | 71 | 180 | 2.0 | 9.0 | 0.00 | 0.00 | 0.00 | 79 | 1009.7 |
| 20260506183005 | 70 | 232 | 3.0 | 9.0 | 0.00 | 0.00 | 0.00 | 79 | 1009.7 |
| 20260506182505 | 70 | 174 | 3.0 | 12.0 | 0.00 | 0.00 | 0.00 | 81 | 1009.7 |
| 20260506182004 | 69 | 193 | 3.0 | 12.0 | 0.00 | 0.00 | 0.00 | 81 | 1010.0 |
| 20260506181504 | 69 | 242 | 3.0 | 12.0 | 0.00 | 0.00 | 0.00 | 81 | 1010.3 |
| 20260506181004 | 69 | 158 | 3.0 | 12.0 | 0.00 | 0.00 | 0.00 | 81 | 1010.0 |
| 20260506180504 | 69 | 243 | 5.0 | 12.0 | 0.00 | 0.00 | 0.00 | 81 | 1010.1 |
| 20260506180005 | 69 | 211 | 3.0 | 12.0 | 0.00 | 0.00 | 0.00 | 82 | 1010.3 |
| 20260506175504 | 69 | 196 | 2.0 | 10.0 | 0.00 | 0.00 | 0.00 | 82 | 1010.3 |
| 20260506175004 | 69 | 156 | 1.0 | 10.0 | 0.00 | 0.00 | 0.00 | 83 | 1010.3 |
| 20260506174505 | 69 | 212 | 3.0 | 10.0 | 0.00 | 0.00 | 0.00 | 82 | 1010.0 |
| 20260506174004 | 69 | 254 | 1.0 | 9.0 | 0.00 | 0.00 | 0.00 | 83 | 1010.1 |
| 20260506173505 | 69 | 226 | 1.0 | 9.0 | 0.00 | 0.00 | 0.00 | 83 | 1010.2 |
| 20260506172503 | 69 | 207 | 3.0 | 15.0 | 0.00 | 0.00 | 0.00 | 83 | 1010.2 |
| 20260506171005 | 69 | 233 | 2.0 | 12.0 | 0.00 | 0.00 | 0.00 | 82 | 1010.4 |
| 20260506170503 | 69 | 231 | 2.0 | 12.0 | 0.00 | 0.00 | 0.00 | 81 | 1010.3 |
| 20260506170004 | 68 | 219 | 2.0 | 10.0 | 0.00 | 0.00 | 0.00 | 82 | 1010.7 |
| 20260506165504 | 68 | 191 | 3.0 | 10.0 | 0.00 | 0.00 | 0.00 | 81 | 1010.7 |
| 20260506165004 | 68 | 225 | 1.0 | 10.0 | 0.00 | 0.00 | 0.00 | 80 | 1010.9 |
| 20260506164504 | 68 | 227 | 3.0 | 8.0 | 0.00 | 0.00 | 0.00 | 79 | 1011.1 |
| 20260506164004 | 68 | 282 | 2.0 | 12.0 | 0.00 | 0.00 | 0.00 | 78 | 1011.2 |
| 20260506163504 | 69 | 214 | 2.0 | 18.0 | 0.00 | 0.00 | 0.00 | 77 | 1011.3 |
| 20260506163005 | 70 | 221 | 3.0 | 18.0 | 0.00 | 0.00 | 0.00 | 76 | 1011.5 |
| 20260506162504 | 72 | 192 | 3.0 | 10.0 | 0.00 | 0.00 | 0.00 | 73 | 1011.6 |
| 20260506162004 | 72 | 298 | 2.0 | 8.0 | 0.00 | 0.00 | 0.00 | 71 | 1011.6 |
| 20260506161505 | 73 | 65 | 2.0 | 7.0 | 0.00 | 0.00 | 0.00 | 69 | 1011.5 |
| 20260506160504 | 73 | 132 | 3.0 | 12.0 | 0.00 | 0.00 | 0.00 | 68 | 1011.4 |
| 20260506160005 | 74 | 214 | 3.0 | 13.0 | 0.00 | 0.00 | 0.00 | 67 | 1011.5 |
| 20260506155504 | 74 | 200 | 4.0 | 15.0 | 0.00 | 0.00 | 0.00 | 67 | 1011.7 |
| 20260506155004 | 74 | 162 | 2.0 | 15.0 | 0.00 | 0.00 | 0.00 | 67 | 1011.7 |
| 20260506154505 | 74 | 168 | 4.0 | 15.0 | 0.00 | 0.00 | 0.00 | 67 | 1011.6 |
| 20260506154007 | 74 | 244 | 2.0 | 10.0 | 0.00 | 0.00 | 0.00 | 68 | 1011.7 |
| 20260506153504 | 74 | 157 | 2.0 | 18.0 | 0.00 | 0.00 | 0.00 | 66 | 1011.6 |
| 20260506153004 | 74 | 190 | 6.0 | 18.0 | 0.00 | 0.00 | 0.00 | 64 | 1011.7 |
| 20260506152504 | 74 | 232 | 5.0 | 13.0 | 0.00 | 0.00 | 0.00 | 65 | 1011.6 |
| 20260506151504 | 74 | 203 | 2.0 | 10.0 | 0.00 | 0.00 | 0.00 | 66 | 1011.6 |
| 20260506151004 | 74 | 209 | 2.0 | 8.0 | 0.00 | 0.00 | 0.00 | 67 | 1011.7 |
| 20260506150005 | 73 | 196 | 3.0 | 13.0 | 0.00 | 0.00 | 0.00 | 67 | 1011.7 |
| 20260506145005 | 73 | 203 | 3.0 | 20.0 | 0.00 | 0.00 | 0.00 | 67 | 1011.8 |
| 20260506144504 | 73 | 208 | 4.0 | 20.0 | 0.00 | 0.00 | 0.00 | 66 | 1011.6 |
| 20260506144004 | 74 | 203 | 4.0 | 13.0 | 0.00 | 0.00 | 0.00 | 66 | 1011.6 |
| 20260506143503 | 74 | 237 | 5.0 | 13.0 | 0.00 | 0.00 | 0.00 | 66 | 1011.7 |
| 20260506143004 | 74 | 215 | 3.0 | 16.0 | 0.00 | 0.00 | 0.00 | 66 | 1011.8 |
| 20260506142504 | 74 | 214 | 3.0 | 16.0 | 0.00 | 0.00 | 0.00 | 67 | 1011.8 |
| 20260506142003 | 74 | 193 | 3.0 | 12.0 | 0.00 | 0.00 | 0.00 | 66 | 1011.8 |
| 20260506141504 | 74 | 184 | 2.0 | 12.0 | 0.00 | 0.00 | 0.00 | 67 | 1011.8 |
| 20260506141004 | 74 | 248 | 2.0 | 14.0 | 0.00 | 0.00 | 0.00 | 66 | 1011.8 |
| 20260506140503 | 74 | 202 | 3.0 | 14.0 | 0.00 | 0.00 | 0.00 | 66 | 1011.8 |
| 20260506140004 | 74 | 186 | 5.0 | 14.0 | 0.00 | 0.00 | 0.00 | 66 | 1011.7 |
| 20260506135504 | 73 | 187 | 3.0 | 18.0 | 0.00 | 0.00 | 0.00 | 67 | 1011.7 |
| 20260506135004 | 73 | 225 | 5.0 | 18.0 | 0.00 | 0.00 | 0.00 | 67 | 1011.7 |
| 20260506134504 | 73 | 203 | 7.0 | 18.0 | 0.00 | 0.00 | 0.00 | 66 | 1011.8 |
| 20260506134004 | 73 | 176 | 3.0 | 17.0 | 0.00 | 0.00 | 0.00 | 68 | 1011.9 |
| 20260506133504 | 73 | 227 | 6.0 | 17.0 | 0.00 | 0.00 | 0.00 | 68 | 1011.9 |